Regional Weather Roundup
Issued by NWS

Home | Current Version | Previous Version | Text Only | Print | Product List | Glossary Off
Versions: 1 2 3 4 5 6 7 8 9 10 11 12 13 14 15 16 17 18 19 20 21 22 23 24 25 26 27 28 29 30 31 32 33 34 35 36 37 38 39 40 41 42 43 44 45 46 47 48 49 50

000
ASUS43 KBIS 172220
RWRND

NORTH DAKOTA REGIONAL WEATHER ROUNDUP
NATIONAL WEATHER SERVICE BISMARCK ND
500 PM CDT WED SEP 17 2014

NOTE: "FAIR" INDICATES FEW OR NO CLOUDS BELOW 12,000 FEET WITH NO
SIGNIFICANT WEATHER AND/OR OBSTRUCTIONS TO VISIBILITY.


NDZ001>003-009>011-017-172300-
NORTHWEST NORTH DAKOTA

CITY           SKY/WX    TMP DP  RH WIND       PRES   REMARKS
WILLISTON      SUNNY     77  41  27 S13       29.93S
MINOT          SUNNY     68  49  50 E8        29.98F
MINOT AFB      SUNNY     67  51  56 E13       29.98F
$$

NDZ018>021-031>035-040>046-172300-
SOUTHWEST NORTH DAKOTA

CITY           SKY/WX    TMP DP  RH WIND       PRES   REMARKS
BISMARCK       MOSUNNY   76  48  37 E7        29.96F
DICKINSON      MOSUNNY   71  47  42 SE13      29.93F
GARRISON         N/A     74  45  35 E8        29.96F
HETTINGER ARPT CLOUDY    65  51  60 SE8       29.96F
$$

NDZ004>008-012>016-024-026-027-054-172300-
NORTHEAST NORTH DAKOTA

CITY           SKY/WX    TMP DP  RH WIND       PRES   REMARKS
GRAND FORKS    SUNNY     65  48  54 NE9       30.01F
GRND FRKS AFB  SUNNY     63  50  63 NE12      30.02F
DEVILS LAKE    SUNNY     61  46  59 E10       30.01F
$$

NDZ022-023-025-028>030-036>039-047>053-172300-
SOUTHEAST NORTH DAKOTA

CITY           SKY/WX    TMP DP  RH WIND       PRES   REMARKS
FARGO          SUNNY     74  48  39 N10       29.97R
JAMESTOWN      SUNNY     72  50  45 NE9       29.97S
$$




USA.gov is the U.S. government's official web portal to all federal, state and local government web resources and services.